Location: Gleizolles
(44.4833°N, 6.7667°E)
Time: 01:10:10
(UTC+00:00)

S-56A Canister/Altair - Pass Details

Date: 29 June 2024
Orbit: 638 x 2488 km, 38.9° (Epoch: 24 July)

Event Time Altitude Azimuth Distance (km) Brightness Sun altitude
Rises 21:32:06 0° 270° (W) 4,105 11.7 -16.6°
Reaches altitude 10° 21:34:33 10° 266° (W) 3,350 11.1 -16.8°
Maximum altitude 21:43:07 60° 190° (S) 1,948 9.2 -17.6°
Drops below altitude 10° 21:55:45 10° 115° (ESE) 4,804 11.1 -18.5°
Enters shadow 21:57:02 - 114° (ESE) 5,159 11.3 -18.6°
Sets 22:00:00 0° 112° (ESE) 5,977 - -18.8°
